Location: Arthez
(43.0833°N, 0.2500°W)
Time: 00:47:58
(UTC+00:00)

NOSS 3-1 (A) - Pass Details

Date: 29 May 2022
Orbit: 711 x 1501 km, 63.4° (Epoch: 21 May)

Event Time Altitude Azimuth Distance (km) Brightness Sun altitude
Rises 01:04:24 0° 316° (NW) 4,063 7.1 -23.6°
Reaches altitude 10° 01:07:14 10° 307° (NW) 3,209 6.4 -23.4°
Maximum altitude 01:14:09 34° 247° (WSW) 2,092 4.8 -23.0°
Enters shadow 01:15:32 33° 229° (SW) 2,182 4.8 -22.9°
